This is the latest recevied weather packets stored in our database for station/object N4ZIQ. If no packets are shown the sender has not sent any weather packets the latest 10 day(s).
| Time | Temp. | Humidity | Pressure | Rain* | Wind** | Luminosity | Snow |
|---|---|---|---|---|---|---|---|
| 1777472151 | 25.56° C | 72% | 1018.7 hPa | 0 mm | - | 397 W/m² | - |
| 1777471842 | 25.56° C | 71% | 1018.8 hPa | 0 mm | - | 401 W/m² | - |
| 1777471543 | 25.56° C | 77% | 1018.7 hPa | 0 mm | - | 406 W/m² | - |
| 1777471251 | 25° C | 78% | 1018.5 hPa | 0 mm | - | 287 W/m² | - |
| 1777470944 | 25° C | 77% | 1018.3 hPa | 0 mm | - | 536 W/m² | - |
| 1777470645 | 25° C | 79% | 1018.2 hPa | 0 mm | - | 603 W/m² | - |
| 1777470359 | 25° C | 78% | 1018.1 hPa | 0 mm | - | 550 W/m² | - |
| 1777470044 | 25° C | 82% | 1018.1 hPa | 0 mm | - | 515 W/m² | - |
| 1777469743 | 23.89° C | 83% | 1018.1 hPa | 0 mm | - | 504 W/m² | - |
| 1777469459 | 23.89° C | 82% | 1018.3 hPa | 0 mm | - | 478 W/m² | - |
| 1777469145 | 23.33° C | 84% | 1018.5 hPa | 0 mm | - | 450 W/m² | - |
| 1777468845 | 23.33° C | 87% | 1018.6 hPa | 0 mm | - | 406 W/m² | - |
| 1777468551 | 22.78° C | 89% | 1018.5 hPa | 0 mm | - | 413 W/m² | - |
| 1777468243 | 22.78° C | 91% | 1018.5 hPa | 0 mm | - | 431 W/m² | - |
| 1777467943 | 22.22° C | 93% | 1018.4 hPa | 0 mm | - | 441 W/m² | - |
| 1777467653 | 21.67° C | 94% | 1018.2 hPa | 0 mm | - | 439 W/m² | - |
| 1777467342 | 21.11° C | 95% | 1018.2 hPa | 0 mm | - | 262 W/m² | - |
| 1777467045 | 20.56° C | 95% | 1018 hPa | 0 mm | - | 225 W/m² | - |
| 1777466765 | 20.56° C | 96% | 1018.1 hPa | 0 mm | - | 141 W/m² | - |
| 1777466446 | 20.56° C | 96% | 1018.1 hPa | 0 mm | - | 167 W/m² | - |
| 1777466144 | 20° C | 96% | 1018 hPa | 0 mm | - | 376 W/m² | - |
| 1777465854 | 20° C | 97% | 1017.9 hPa | 0 mm | - | 353 W/m² | - |
| 1777465546 | 19.44° C | 97% | 1017.9 hPa | 0 mm | - | 304 W/m² | - |
| 1777465246 | 18.89° C | 97% | 1017.8 hPa | 0 mm | - | 120 W/m² | - |
| 1777464959 | 18.89° C | 97% | 1017.9 hPa | 0 mm | - | 237 W/m² | - |
* Rain latest hour (hover to see other rain measurements)
** Current wind speed in m/s (hover to see current wind gust speed)